EW6519 Weather Reports


time (UTC)temp
C
wind
direction
speed
KPH
gust
KPH
rain 1hr
cm
rain 24hr
cm
rain mn
cm
humidity
%
barometer
mb
20260507160032 13 357 0.0 8.0 0.00 0.00 0.00 43 1015.0
20260507154820 13 309 0.0 9.7 0.00 0.00 0.00 44 1014.8
20260507154501 13 307 0.0 9.7 0.00 0.00 0.00 42 1015.0
20260507153101 13 40 0.0 14.5 0.00 0.00 0.00 43 1014.9
20260507153001 13 266 3.2 14.5 0.00 0.00 0.00 43 1014.9
20260507151600 12 18 1.6 6.4 0.00 0.00 0.00 45 1014.9
20260507150055 12 43 0.0 8.0 0.00 0.00 0.00 50 1014.8
20260507144608 12 332 1.6 6.4 0.00 0.00 0.00 49 1014.9
20260507143100 12 6 1.6 9.7 0.00 0.00 0.00 48 1015.0
20260507141558 11 20 1.6 14.5 0.00 0.00 0.00 48 1015.0
20260507140050 11 286 0.0 6.4 0.00 0.00 0.00 50 1015.1
20260507134552 10 273 0.0 11.3 0.00 0.00 0.00 50 1015.0
20260507133118 10 307 3.2 9.7 0.00 0.00 0.00 52 1015.0
20260507131545 10 303 1.6 11.3 0.00 0.00 0.00 54 1015.1
20260507130050 10 326 0.0 0.0 0.00 0.00 0.00 61 1015.0
20260507124536 8 278 0.0 8.0 0.00 0.00 0.00 65 1015.0
20260507123040 7 289 0.0 0.0 0.00 0.00 0.00 68 1015.1
20260507121534 7 340 0.0 0.0 0.00 0.00 0.00 69 1015.2
20260507120035 7 25 0.0 0.0 0.00 0.00 0.00 72 1015.1
20260507114532 6 286 0.0 0.0 0.00 0.00 0.00 72 1015.1
20260507113034 6 20 0.0 0.0 0.00 0.00 0.00 74 1015.1
20260507111527 6 314 0.0 0.0 0.00 0.00 0.00 74 1014.9
20260507110033 6 293 0.0 3.2 0.00 0.00 0.00 75 1014.7
20260507104523 6 261 0.0 0.0 0.00 0.00 0.00 76 1014.4
20260507103028 6 292 0.0 0.0 0.00 0.00 0.00 79 1014.5
20260507101531 6 284 0.0 0.0 0.00 0.00 0.00 79 1014.5
20260507100022 6 291 0.0 0.0 0.00 0.00 0.00 80 1014.4
20260507094518 6 298 0.0 0.0 0.00 0.00 0.00 81 1014.5
20260507093016 6 295 0.0 0.0 0.00 0.00 0.00 81 1014.4
20260507091518 6 294 0.0 0.0 0.00 0.00 0.00 81 1014.2
20260507090013 7 294 0.0 0.0 0.00 0.00 0.00 82 1014.2
20260507084514 7 308 0.0 0.0 0.00 0.05 0.00 83 1014.1
20260507083012 7 326 0.0 0.0 0.00 0.05 0.00 85 1014.0
20260507081511 7 326 0.0 0.0 0.00 0.05 0.00 86 1013.9
20260507080012 7 326 0.0 0.0 0.00 0.05 0.00 86 1014.0
20260507074509 7 326 0.0 0.0 0.00 0.18 0.00 87 1013.8
20260507073007 7 326 0.0 0.0 0.00 0.18 0.00 86 1013.9
20260507071508 7 326 0.0 0.0 0.00 0.18 0.00 85 1013.9
20260507070010 7 326 0.0 0.0 0.00 0.18 0.00 86 1013.7
20260507064504 7 326 0.0 0.0 0.00 0.58 0.00 86 1013.9
20260507063002 7 326 0.0 0.0 0.00 0.58 0.00 85 1014.0
20260507061502 7 326 0.0 0.0 0.00 0.58 0.00 85 1014.0
20260507060101 7 326 0.0 0.0 0.00 0.58 0.00 83 1014.0
20260507054558 8 326 0.0 0.0 0.00 0.94 0.00 83 1014.0
20260507053122 8 326 0.0 0.0 0.00 0.94 0.00 82 1014.0
20260507051556 8 326 0.0 0.0 0.00 0.94 0.00 81 1013.9
20260507050053 8 326 0.0 0.0 0.00 0.94 0.00 81 1014.0
20260507044603 8 326 0.0 0.0 0.00 1.09 0.00 79 1014.1
20260507043051 9 326 0.0 0.0 0.00 1.09 0.00 77 1014.2
20260507041551 9 326 0.0 0.0 0.00 1.09 0.00 77 1014.2
20260507040048 9 326 0.0 0.0 0.00 1.09 0.00 76 1014.0
20260507034547 10 326 0.0 0.0 0.00 1.12 1.09 75 1014.0
20260507033058 10 4 0.0 0.0 0.00 1.12 1.09 74 1014.1
20260507031556 9 4 0.0 0.0 0.00 1.12 1.09 73 1014.1
20260507024602 10 4 0.0 0.0 0.00 1.22 1.09 72 1014.1
20260507023040 10 4 0.0 0.0 0.00 1.22 1.09 71 1014.0
20260507021547 10 4 0.0 0.0 0.00 1.22 1.09 70 1013.9
20260507020051 11 4 0.0 0.0 0.00 1.22 1.09 69 1013.8
20260507014548 11 4 0.0 0.0 0.00 1.50 1.09 68 1013.6
20260507013040 11 4 0.0 0.0 0.00 1.50 1.09 66 1013.6
20260507011537 11 4 0.0 0.0 0.00 1.50 1.09 65 1013.3
20260507010040 12 6 0.0 0.0 0.00 1.50 1.09 64 1013.2
20260507004532 12 283 0.0 0.0 0.00 1.52 1.09 62 1013.1
20260507003031 12 292 0.0 1.6 0.00 1.52 1.09 61 1013.2
20260507001534 12 339 0.0 0.0 0.00 1.52 1.09 59 1012.9
20260507000029 13 20 0.0 1.6 0.00 1.52 1.09 60 1012.9
20260506234528 13 292 0.0 3.2 0.00 1.55 1.09 59 1012.5
20260506233027 13 112 0.0 8.0 0.00 1.55 1.09 58 1012.4
20260506231527 13 302 0.0 4.8 0.00 1.55 1.09 57 1012.4
20260506230026 13 340 0.0 4.8 0.00 1.55 1.09 58 1012.0
20260506224526 14 281 0.0 4.8 0.00 1.57 1.09 56 1012.2
20260506223025 13 288 0.0 6.4 0.00 1.57 1.09 55 1012.3
20260506221524 14 28 1.6 8.0 0.00 1.57 1.09 53 1012.5
20260506220024 15 89 0.0 1.6 0.00 1.57 1.09 54 1012.7
20260506214523 15 298 0.0 0.0 0.00 1.65 1.09 52 1012.6
20260506213021 15 293 0.0 4.8 0.00 1.65 1.09 52 1012.4
20260506211524 15 23 0.0 11.3 0.00 1.65 1.09 53 1012.3
20260506210024 15 285 1.6 8.0 0.00 1.65 1.09 51 1012.2
20260506204520 15 285 0.0 0.0 0.00 2.06 1.09 51 1012.0
20260506203019 15 319 0.0 9.7 0.00 2.06 1.09 56 1012.0
20260506201520 15 248 0.0 6.4 0.00 2.06 1.09 56 1012.1
20260506200019 15 81 1.6 11.3 0.00 2.06 1.09 54 1012.1
20260506194518 15 265 0.0 4.8 0.00 2.57 1.09 52 1012.2
20260506193017 15 283 1.6 9.7 0.00 2.57 1.09 50 1012.2
20260506191518 15 266 0.0 9.7 0.00 2.57 1.09 53 1011.7
20260506190015 16 305 3.2 8.0 0.00 2.57 1.09 51 1011.7
20260506184513 16 233 3.2 8.0 0.00 2.57 1.09 51 1011.6
20260506183012 15 86 0.0 17.7 0.00 2.57 1.09 54 1011.7
20260506181509 15 288 1.6 11.3 0.00 2.57 1.09 55 1011.6
20260506180013 15 50 0.0 14.5 0.00 2.57 1.09 55 1011.9
20260506174509 15 291 4.8 14.5 0.00 2.57 1.09 52 1012.0
20260506173016 14 273 0.0 14.5 0.00 2.57 1.09 54 1012.2
20260506171505 13 345 1.6 12.9 0.00 2.57 1.09 55 1012.3
20260506170004 13 281 0.0 6.4 0.00 2.57 1.09 58 1012.4
20260506164503 13 48 3.2 11.3 0.00 2.57 1.09 63 1012.4
20260506163107 12 280 0.0 8.0 0.00 2.57 1.09 64 1012.4
20260506161641 12 65 0.0 6.4 0.00 2.57 1.09 66 1012.4
20260506160111 11 10 0.0 6.4 0.00 2.57 1.09 66 1012.4